www.pogodaiklimat.ru

Погода и климат >> Архив погоды >> Россия >> Коми >> Сыктывкар


АРХИВ ПОГОДЫ в Сыктывкаре

Время (UTC), дата Ветер
(напр.,м/с)
 
Видим.   Явления Облачность Т
(С)
Тd
(С)
f
(%)
Тe
(С)
Тes
(С)
Комфортность P
(гПа)
Po
(гПа)
Тmin
(С)
Tmax
(С)
R
(мм)
R24
(мм)
S
(см)
12 18.06 З 1 4000 м слаб. ливневой дождь 10/4 600 м
[Cb calv Ac As]
+20.3 +8.4 46 +23 +24 комфорт 1004.7 991.3
15 18.06 З 2 10 км {ливн. осадки} 8/3 1000 м
[Cb calv Ac As]
+17.7 +8.4 54 +18 +19 по сезону 1004.7 991.2 +22.1 0.0
18 18.06 З 1 10 км {ливн. осадки} 3/0
[Ac lent]
+14.0 +8.7 70 +14 +14 по сезону 1004.7 991.0
21 18.06 З 1 10 км 10/0
[Ac lent Ci fib]
+11.4 +8.7 83 +11 +11 по сезону 1005.0 991.2
00 19.06 штиль 0 10 км 4/0
[Ac trans Ci sp]
+9.7 +7.9 89 +9 +9 по сезону 1006.0 992.0
03 19.06 С 1 10 км 3/0
[Ac trans]
+16.1 +7.7 57 +17 +20 тепло 1006.4 992.8 +9.6
06 19.06 СЗ 2 10 км 9/6 1440 м
[Sc Ac cast]
+16.6 +5.2 47 +17 +19 по сезону 1007.4 993.7
09 19.06 СЗ 3 10 км 4/3 1000 м
[Cu hum Ci fib]
+20.1 +8.4 47 +22 +29 комфорт 1007.3 993.8
12 19.06 СЗ 2 10 км 9/0
[Ac cast Ci]
+20.8 +5.3 36 +22 +29 комфорт 1007.4 994.0
15 19.06 СЗ 1 10 км 9/0
[Cs]
+20.0 +6.3 41 +22 +24 комфорт 1007.2 993.7 +22.2
18 19.06 штиль 0 10 км 10/0
[Cs]
+15.3 +9.5 68 +15 +15 по сезону 1007.4 993.7
21 19.06 штиль 0 10 км 9/0
[Ac trans]
+12.7 +8.6 76 +12 +12 по сезону 1007.1 993.2
00 20.06 Ю 1 10 км 10/0
[Ac As]
+12.1 +9.3 83 +12 +12 по сезону 1005.5 991.7
03 20.06 З 1 4000 м слаб. дождь 10/0
[Ac As]
+13.8 +11.9 88 +14 +15 по сезону 1005.1 991.4 +9.5 0.0
06 20.06 СЗ 2 4000 м слаб. ливневой дождь 9/8 720 м
[Cb calv Ac As]
+16.3 +12.5 78 +16 +18 по сезону 1005.5 991.9
09 20.06 СЗ 2 4000 м гроза, ливневой дождь 8/8 840 м
[Cb calv Ac As]
+16.5 +13.2 81 +17 +19 прохладно 1006.1 992.5
12 20.06 З 2 10 км {гроза, ливн. осадки} 8/3 1000 м
[Cb calv Ac As]
+18.3 +13.8 75 +19 +22 по сезону 1007.8 994.3
15 20.06 СЗ 2 10 км {гроза} 6/3 1500 м
[Cb calv Ac trans]
+16.5 +8.9 61 +17 +18 по сезону 1010.0 996.3 +20.3 2
18 20.06 СЗ 1 10 км {гроза} 4/4 1000 м
[Cu hum]
+10.8 +6.0 72 +11 +11 холодно 1013.6 999.6
21 20.06 С 1 10 км ясно +7.4 +4.8 84 +7 +7 холодно 1015.5 1001.3
00 21.06 штиль 0 10 км 4/0
[Ci]
+3.9 +3.7 99 +3 +3 очень
холодно
1016.9 1002.5
03 21.06 ЮЗ 1 10 км 8/4 600 м
[Sc Ac cast Ci]
+9.7 +5.6 76 +9 +11 холодно 1017.5 1003.4 +3.8
06 21.06 З 2 10 км в посл. час ливневой дождь 9/5 600 м
[Cb calv Ac trans Ci fib]
+13.9 +8.5 70 +13 +17 прохладно 1017.5 1003.6
09 21.06 СЗ 2 10 км 8/8 800 м
[Cu Sc]
+18.5 +7.7 49 +19 +22 по сезону 1016.6 1002.9
12 21.06 СЗ 2 10 км 8/8 800 м
[Cu Sc Ci fib]
+18.9 +7.1 46 +20 +22 по сезону 1016.2 1002.5
15 21.06 С 1 10 км 8/0
[Ac trans]
+19.3 +7.5 46 +21 +22 комфорт 1015.3 1001.7 +21.0 0.0
18 21.06 ЮЗ 1 10 км 9/0
[Ac As]
+15.2 +11.0 76 +16 +16 по сезону 1015.3 1001.5
21 21.06 штиль 0 10 км 10/0
[Ac As Ci fib]
+13.3 +10.1 81 +13 +13 по сезону 1014.7 1000.8
00 22.06 Ю 1 10 км 8/0
[Ac trans Ci sp]
+12.3 +8.9 80 +12 +12 по сезону 1013.5 999.5
03 22.06 Ю 1 10 км слаб. ливневой дождь 8/4 600 м
[Cb cap Ac trans]
+14.0 +12.1 88 +14 +16 по сезону 1011.5 997.7 +12.2 0.8
06 22.06 Ю 3 10 км {ливн. осадки} 4/0
[Ac trans Ci fib]
+21.7 +15.1 66 +25 +32 комфорт 1008.5 995.1
09 22.06 З 4 10 км 9/3 1000 м
[Cb calv Ac As Ci fib]
+26.7 +15.2 49 +29 +33 жарко 1006.8 993.7
12 22.06 З 3-12
{12}
10 км {гроза} 8/3 1000 м
[Cu hum Ac As Ci fib]
+27.7 +15.4 47 +31 +34 душно 1005.5 992.5
15 22.06 З 2 10 км 10/3 600 м
[Cu hum Ac lent Cs]
+26.3 +15.5 51 +29 +30 жарко 1005.1 992.0 +28.3 0.0
18 22.06 ЮЗ 2 10 км 10/0
[Ac lent Cs]
+22.0 +16.3 70 +26 +26 душно 1005.1 991.8
21 22.06 З 1 10 км 9/0
[Ac trans]
+19.9 +17.0 83 +24 +24 комфорт 1005.0 991.6
00 23.06 ЮЗ 1 10 км 10/0
[Ac trans Ci fib]
+18.2 +16.7 91 +20 +20 тепло 1005.0 991.5
03 23.06 З 2 10 км 10/3 1000 м
[Cu hum Cc]
+20.4 +17.7 84 +24 +26 комфорт 1004.9 991.5 +18.1
06 23.06 З 4 10 км 8/3 1000 м
[Cu Sc Ac cast]
+23.1 +15.8 63 +27 +30 душно 1005.4 992.1
09 23.06 СЗ 4
{10}
10 км 8/5 600 м
[Cu hum Ac lent]
+22.1 +11.4 51 +24 +27 комфорт 1007.0 993.7
12 23.06 З 4
{12}
10 км 5/5 1000 м
[Cu hum]
+23.3 +7.6 36 +24 +27 комфорт 1008.3 994.9
15 23.06 З 3-11
{13}
10 км 6/5 1000 м
[Cu hum Ac lent]
+21.5 +5.5 35 +22 +23 комфорт 1009.6 996.2 +24.5
18 23.06 З 1
{11}
10 км 4/3 600 м
[Sc Ac trans Ci sp]
+17.0 +5.5 47 +18 +18 тепло 1010.8 997.1
21 23.06 З 1 10 км 6/1 600 м
[Sc Ci fib]
+11.6 +6.4 70 +12 +12 по сезону 1012.3 998.3
00 24.06 З 1 10 км 8/0
[Ac trans]
+11.1 +6.5 73 +11 +11 по сезону 1012.9 998.9
03 24.06 З 2 10 км 4/0
[Ac lent Ci sp]
+14.4 +7.5 63 +14 +17 по сезону 1013.3 999.4 +9.9
06 24.06 З 3
{11}
10 км 9/5 600 м
[Cb cap Ac und]
+17.2 +8.2 55 +17 +19 по сезону 1013.7 1000.0
09 24.06 З 3
{10}
4000 м слаб. ливневой дождь 9/8 540 м
[Cb cap Ac und]
+14.4 +10.1 75 +14 +15 холодно 1014.5 1000.7
12 24.06 СЗ 1 4000 м слаб. ливневой дождь 9/6 570 м
[Cb cap Ac trans]
+16.6 +10.0 65 +18 +20 прохладно 1015.1 1001.4
15 24.06 С 2 10 км в посл. час ливневой дождь 8/6 930 м
[Cb cap Ac trans]
+15.4 +9.0 66 +15 +16 прохладно 1015.9 1002.1 +18.0 2
18 24.06 штиль 0 10 км {ливн. осадки} 9/4 600 м
[Cb cap Ac trans Ci fib]
+11.2 +9.5 89 +11 +11 холодно 1016.7 1002.7
21 24.06 штиль 0 10 км 9/5 600 м
[Cb cap Ac trans]
+10.2 +9.9 98 +9 +9 холодно 1017.3 1003.2
00 25.06 штиль 0 10 км в посл. час ливневой дождь 10/5 600 м
[Cb cap Ac und]
+9.9 +9.7 99 +9 +9 прохладно 1017.6 1003.5
03 25.06 СЗ 1 4000 м слаб. ливневой дождь 10/5 1000 м
[Cb cap Ac und]
+10.9 +10.0 94 +10 +11 прохладно 1018.6 1004.5 +9.8 0.3
06 25.06 СЗ 2 10 км {ливн. осадки} 10/5 300 м
[Cb cap Ac und]
+13.9 +10.2 78 +13 +15 холодно 1018.9 1005.0
09 25.06 С 2 10 км в посл. час ливневой дождь 9/8 600 м
[Cb cap Ac trans]
+12.8 +9.3 79 +12 +14 очень
холодно
1019.7 1005.7

 

Местоположение метеостанции Сыктывкар (Коми, Россия): широта 61.68 долгота 50.78 высота над уровнем моря 119 м.

В архиве по умолчанию представлена погода в Сыктывкаре за последнюю неделю. Архивные данные за месяц целиком и за предыдущие месяцы, начиная с января 2011 года, Вы можете получить, выбрав интересующий диапазон дат из раскрывающегося списка и нажав кнопку "Ввод!".


*Определитесь, кто Вы:
робот инопланетянин человек

Внимание! Время в таблицах - всемирное. Для получения местного времени необходимо прибавить поправку, которая равна 3 ч.

Смотрите также архив погоды в соседних городах и на ближайших метеорологических станциях:

Погода в Усть-Выми (Коми, Россия) (64 км)
Погода в Пустоши (Коми, Россия) (68 км)
Погода в Яренске (Архангельская область, Россия) (103 км)
Погода в Луни (Коми, Россия) (108 км)
Погода в Слободчиково (Архангельская область, Россия) (133 км)
Погода в Койгородке (Коми, Россия) (137 км)
Погода в Весляне (Коми, Россия) (145 км)
Погода в Усть-Куломе (Коми, Россия) (153 км)
Погода в Объячеве (Коми, Россия) (158 км)
Погода в Вилегодском (Архангельская область, Россия) (162 км)

Пояснения к столбцам:

Ветер - указаны скорость ветра в м/с - средняя за 10 мин, порывы в срок и между сроками (в фигурных скобках) и направление, откуда дует ветер: С - северный, СВ - северо-восточный, В - восточный, ЮВ - юго-восточный, Ю - южный, ЮЗ - юго-западный, З - западный, СЗ - северо-западный.
Видимость - горизонтальная дальность видимости в метрах или километрах. При видимости от 1 до 10 км при отсутствии осадков обычно наблюдается дымка, при ухудшении видимости до 1 км и менее - туман. В сухую погоду видимость может ухудшаться дымом, пылью или мглою.
Явления - указаны атмосферные явления, наблюдавшиеся в срок или в последний час перед сроком; фигурными скобками обозначены явления, наблюдавшиеся между сроками (за 1-3 часа до срока); квадратными скобками обозначены град или гололедные отложения с указанием их диаметра в мм.
Облачность - указаны через наклонную черту общая и нижняя облачность в баллах и высота нижней границы облаков в метрах; квадратными скобками обозначены формы облаков: Ci - перистые, Cs - перисто-слоистые, Cc - перисто-кучевые, Ac - высококучевые, As - высокослоистые, Sc - слоисто-кучевые, Ns - слоисто-дождевые, Cu - кучевые, Cb - кучево-дождевые. Подробнее классификацию облаков см. в Атласе облаков (PDF).
T - Температура воздуха - температура, измеренная на высоте 2 м над землей.
Td - Температура точки росы - температура, при понижении до которой содержащийся в воздухе водяной пар достигнет насыщения.
f - Относительная влажность воздуха - влажноcть воздуха, измеренная на высоте 2 м над землей.
Te - Эффективная температура - температура, которую ощущает одетый по сезону человек в тени. Характеристика душности погоды. При расчете учитывается влияние влажности воздуха и скорости ветра на теплоощущения человека.
Tes - Эффективная температура на солнце - температура, которую ощущает человек, с поправкой на солнечный нагрев. Характеристика знойности погоды. Зависит от высоты солнца над горизонтом, облачности и скорости ветра. Ночью, в пасмурную погоду, а также при ветре 12 м/с и более поправка равна нулю.
P - Атмосферное давление - приведенное к уровню моря атмосферное давление.
Po - Атмосферное давление - измеренное на уровне метеостанции атмосферное давление.
Tmin - Минимальная температура - минимум температуры воздуха на высоте 2 м над землей.
Tmax - Максимальная температура - максимум температуры воздуха на высоте 2 м над землей.
R - Количество осадков - Количество выпавших осадков за период времени, мм. При наведении курсора мыши на число - период времени, за который выпало указанное количество осадков.
R24 - Количество осадков - Количество выпавших осадков за 24 часа, мм.
S - Снежный покров - Высота снежного покрова, см. При наведении курсора мыши на число - состояние снежного покрова и степень покрытия местности в баллах.